Regional Weather Roundup
Issued by NWS Pendleton, OR

Home | Current Version | Previous Version | Text Only | Print | Product List | Glossary On
Versions: 1 2 3 4 5 6 7 8 9 10 11 12 13 14 15 16 17 18 19 20 21 22 23 24 25 26 27 28 29 30 31 32 33 34 35 36 37 38 39 40 41 42 43 44 45 46 47 48 49 50
000
ASUS46 KPDT 300425
RWRPDT
PENDLETON REGIONAL WEATHER ROUNDUP
NATIONAL WEATHER SERVICE PENDLETON OREGON
900 PM PDT FRI AUG 29 2014

NOTE: FAIR INDICATES FEW OR NO CLOUDS BELOW 12,000 FEET WITH NO
SIGNIFICANT WEATHER AND/OR OBSTRUCTIONS TO VISIBILITY.

# INDICATES UNOFFICIAL STATION AND DATA

WAZ520-300510-
EAST SLOPES OF WASHINGTON CASCADES

CITY            SKY/WX      TMP DP  RH  WIND    PRES   REMARKS
#CLE ELUM HS    N/A         59  50  72  W7      29.90R
#CLE ELUM 2NW   N/A         58  49  72  SW2     N/A
#CLE ELUM LAKE  N/A         58  48  69  W1      29.85R
#CLIFFDEL 2NW   N/A         57  48  72  N2      N/A
#GLENWOOD       N/A         62  52  70  S3      29.87R
#NELSON         N/A         59  52  78  CALM    29.89R
#NELSON 3SW     N/A         56  49  77  CALM    30.06R
#NILE           N/A         61  50  67  W1      29.14R
#RONALD 2NW     N/A         60  48  64  W2      29.83S
#TEANAWAY 4NE   N/A         61  52  72  CALM    N/A
#TROUT LAKE 1NE N/A         60  51  72  W3      29.88S
$$

WAZ521-300510-
SIMCOE HIGHLANDS

CITY            SKY/WX      TMP DP  RH  WIND    PRES   REMARKS
#BICKLETON HS   N/A         62  37  39  NW12    29.97S
#CENTERVILLE 1SWN/A         64  48  56  NW13    29.82R
#GOLDENDALE 1NE N/A         66  42  42  SW2     N/A
#GOLDENDALE 1S  N/A         64  49  58  W8      29.89R
#GOLDENDALE 5WNWN/A         65  50  58  W10     29.84R
#GOODNOE HILLS  N/A         69  50  51  W16     29.83R
#LYLE 6NE       N/A         65  51  60  SW5     29.84R
$$

WAZ026-300510-
KITTITAS VALLEY

CITY            SKY/WX      TMP DP  RH  WIND    PRES   REMARKS
ELLENSBURG AP   CLOUDY      64  49  58  NW13    29.92S
#ELLENSBURG CWU N/A         63  50  62  NW14    29.83R
#ELLENSBURG 3NE N/A         62  51  67  N8      29.93R
#ELLENSBURG     N/A         65  54  68  NW8     N/A
#ELLENSBURG 1E  N/A         63  47  56  CALM    N/A
#KITTITAS 3S    N/A         62  50  65  NW7     29.84R
#THORP 6N       N/A         58  50  75  W15G30  29.87R
$$

WAZ027-300510-
YAKIMA VALLEY

CITY            SKY/WX      TMP DP  RH  WIND    PRES   REMARKS
SUNNYSIDE AP    CLOUDY      66  50  56  W6      29.86R
YAKIMA-VAGABOND PTCLDY      68  47  47  N12     29.90R
#COWICHE 1N     N/A         64  49  58  NW2     30.07R
#DONALD 2NE     N/A         67  44  43  SW1     30.20R
#GRANDVIEW      N/A         70  47  44  NW1     29.83R
#MABTON         N/A         70  52  53  W5      29.85R
#MOXEE 2E       N/A         67  36  32  N9      29.84R
#NACHES 2SW     N/A         64  51  63  W5      29.89S
#OUTLOOK DOT    N/A         N/A N/A N/A NW5     N/A
#SELAH 8E       N/A         63  46  54  N10     N/A
#TERRACE HTS    N/A         67  48  50  N3      29.80R
#TOPPENISH      N/A         68  49  51  N2      29.76R
#WAPATO 4NE     N/A         67  44  43  SW1     30.20R
#WEST VALLEY    N/A         68  50  53  N3      29.82R
#W YAKIMA       N/A         68  50  53  CALM    29.84R
#WHITE SWAN 5E  N/A         67  51  56  W5      29.84R
#WILEY CITY 3W  N/A         66  33  29  CALM    29.53
$$

WAZ028-300510-
LOWER COLUMBIA BASIN...WASHINGTON

CITY            SKY/WX      TMP DP  RH  WIND    PRES   REMARKS
PASCO           CLOUDY      72  49  44  NW20    29.84R
PROSSER AWOS    N/A         68  54  61  SW6     29.88R
RICHLAND AWOS   PTCLDY      73  45  37  NW16    29.84R
#BASIN CITY 5SW N/A         70  49  47  NW9     29.84R
#BENTON CITY    N/A         73  49  43  W8      29.71R
#CONNELL 5N     N/A         68  46  45  NW2     29.78R
#CONNELL 5NW    N/A         66  49  54  NW1     29.77R
#ELTOPIA        N/A         71  50  47  W3      29.78R
#ELTOPIA 6NW    N/A         69  48  47  W10     28.82R
#KENNEWICK 3S   N/A         72  49  44  CALM    29.83R
#PASCO-BROADMOORN/A         74  48  40  W6      29.71R
#PATERSON       N/A         73  50  44  CALM    29.82R
#PROSSER        N/A         70  49  47  SW2     29.82R
#SAGEMOOR 2W    N/A         70  50  49  W3      29.66R
#TOUCHET 2S     N/A         72  51  48  W1      29.82R
#WEST PASCO     N/A         73  49  43  NW7     29.81R
$$

WAZ029-300510-
FOOTHILLS OF THE BLUES...WASHINGTON

CITY            SKY/WX      TMP DP  RH  WIND    PRES   REMARKS
WALLA WALLA AP  CLOUDY      74  45  35  SW10    29.88R
#COLLEGE PLACE  N/A         76  46  34  W1      29.86R
#DAYTON SCHOOL  N/A         73  41  31  W2      29.85R
#PLEASANT VIEW 1N/A         69  42  37  SW6     29.81R
#PRESCOTT       N/A         73  47  40  CALM    29.79R
#SUDBURY        N/A         72  N/A N/A CALM    N/A
#WHITMAN COLLEGEN/A         73  49  43  W6      29.88R
#WAITSBURG 8N   N/A         69  30  23  S7      29.79R
#WALLA WALLA 5E N/A         82  43  25  W7      N/A
#WALLA WALLA U  N/A         74  50  43  CALM    29.81R
#WHITMAN MISSIONN/A         73  50  44  W3      29.84R
$$

WAZ030-300510-
BLUE MOUNTAINS...WASHINGTON

CITY            SKY/WX      TMP DP  RH  WIND    PRES   REMARKS
$$

ORZ009-041-WAZ024-300510-
COLUMBIA RIVER GORGE

CITY            SKY/WX      TMP DP  RH  WIND    PRES   REMARKS
HOOD RIVER AP   MOCLDY      68  52  57  W3      29.93S
THE DALLES AP   CLOUDY      72  50  46  W15     29.89R
#ARLINGTON AIRPON/A         71  49  46  W17     N/A
#ARLINGTON HS   N/A         74  49  41  NW16    29.75R
#MARYHILL 2W    N/A         70  50  49  NW6     N/A
#MOSIER 1S      N/A         68  43  40  SW10    29.94S
#MURDOCK        N/A         73  55  53  W9      29.90R
#RUFUS DOT      N/A         73  51  46  N8G24   N/A

$$

ORZ510-300510-
NORTH CENTRAL OREGON

CITY            SKY/WX      TMP DP  RH  WIND    PRES   REMARKS
#CHENOWITH 1W   N/A         63  49  60  W28     N/A
#COW CYN RST AREN/A         63  46  54  NW3     N/A
#DUFUR 9E       N/A         61  50  67  NW14    29.91R
#GRASS VALLEY   N/A         62  50  65  NW5     N/A
#GRASS VALLEY 1SN/A         63  50  62  N5      29.89S
#KENT DOT       N/A         59  44  57  NW3     N/A
#MAUPIN SCHOOL  N/A         72  54  53  S1      28.78R
#MORO SCHOOL    N/A         65  55  70  W14     29.95R
#SHANIKO 5WSW   N/A         59  43  55  NW5     N/A
#SHANIKO 4NW    N/A         58  46  64  W7      29.99S
#TYGH VALLEY 2NEN/A         70  50  49  N3      29.85R
#WAPANITIA AIRPON/A         66  51  58  W9      29.87R
#WASCO DOT      N/A         67  51  56  W8      N/A
#WASCO AIRPORT  N/A         67  47  49  W14     N/A
#WASCO 5NE      N/A         66  49  54  W7      29.85R
$$

ORZ511-300510-
CENTRAL OREGON

CITY            SKY/WX      TMP DP  RH  WIND    PRES   REMARKS
BEND AIRPORT    MOCLDY      64  46  52  CALM    30.01R
MADRAS AIRPORT  CLOUDY      64  50  60  NE7     29.97R
REDMOND AIRPORT CLOUDY      66  43  43  NW13    29.97R
#BEND 6E        N/A         63  44  50  CALM    29.78S
#BEND 1SW       N/A         64  44  48  CALM    N/A
#BEND-AWBREY    N/A         63  47  56  SW1     29.84R
#BEND-KIM LN    N/A         65  47  52  CALM    29.96R
#CROOKED RVR RANN/A         66  50  56  NW24G35 29.85R
#CULVER         N/A         64  50  60  E3      29.94R
#LAKE BILLY CHINN/A         67  13  12  S3      30.00R
#POWELL BUTTE   N/A         63  45  52  NW2     29.64R
#PRINEVILLE 3N  N/A         63  49  60  CALM    29.81R
#WARM SPRINGS   N/A         70  52  53  W8      29.90R


ORZ509-300510-
EAST SLOPES OF OREGON CASCADES

CITY            SKY/WX      TMP DP  RH  WIND    PRES   REMARKS
#BLUE BOX PASS  N/A         53   1  12  NW3     N/A
#BLACK BUTTE RNCN/A         63  50  62  CALM    29.86S
#CAMP SHERMAN   N/A         61  47  60  CALM    29.95R
#LA PINE DOT    N/A         59  39  47  W5      N/A
#LA PINE 4NW    N/A         60  44  55  CALM    29.91R
#LAVA BUTTE DOT N/A         58  42  55  CALM    N/A
#SISTERS AIRPOR N/A         64  56  75  N6      29.96S
#SISTERS ODOT   N/A         64  N/A N/A S6      N/A
#SISTERS 1NW    N/A         65  47  52  N13     N/A
#SISTERS 3N     N/A         63  46  54  CALM    N/A
#SUNRIVER       N/A         62  48  60  SW1     29.76R
#SUNRIVER AP    N/A         61  47  60  CALM    29.83R
#SUTTLE LK DOT  N/A         55  47  74  NE5     N/A
#TUMALO 3W      N/A         63  47  56  N3      29.72R
#WANOGA BUTTE D N/A         53  37  54  NW6     N/A

$$

ORZ044-300510-
LOWER COLUMBIA BASIN...OREGON

CITY            SKY/WX      TMP DP  RH  WIND    PRES   REMARKS
HERMISTON       CLOUDY      73  50  44  SW12    29.86R
#BOARDMAN SCHOOLN/A         72  51  48  NW2     29.85R
#BOARDMAN 3W    N/A         70  49  47  SW7     29.56R
#BOARDMAN 8SW   N/A         70  52  53  SW7     29.84R
#ECHO 8SW       N/A         72  48  43  W5      29.85R
#IONE SCHOOL    N/A         70  48  46  SW12    29.90R
#IRRIGON 4NW    N/A         74  52  46  SW7     N/A
#UMATILLA SCHOOLN/A         73  60  64  CALM    29.92R
#UMATILLA       N/A         73  51  46  SW7     29.83R
$$

ORZ507-300510-
NORTHERN FOOTHILLS OF THE BLUES

CITY            SKY/WX      TMP DP  RH  WIND    PRES   REMARKS
PENDLETON AIRPT CLOUDY      71  46  41  W16     29.88R
#ADAMS 3WNW     N/A         70  48  46  W7      29.82R
#ATHENA         N/A         70  46  42  W2      29.86R
#HELIX SCHOOL   N/A         69  47  45  W5      29.82R
#HELIX 3N       N/A         68  46  45  N7      29.88R
#HELIX 6SW      N/A         69  48  47  W15     29.90
#HOLDMAN 5SE    N/A         70  49  47  SW14    29.90R
#HOLDMAN 6E     N/A         69  48  47  N12     29.65R
#M-F GROVE ELEM N/A         74  45  35  CALM    29.87R
#M-FREEWATER 5SEN/A         71  49  46  CALM    29.90R
#PENDLETON DNTN N/A         74  40  29  SW2     29.83S
#PDT AQUATIC CTRN/A         73  44  35  SW2     29.93R
#PDT SUNRIDGE   N/A         72  46  39  CALM    29.89R
#PENDLETON 7NW  N/A         71  50  47  W15     31.42S
#PILOT ROCK     N/A         70  40  34  S2      29.92S
#TUTUILLA       N/A         72  47  41  CALM    29.79R
#UMAPINE 2E     N/A         70  52  53  CALM    29.84R
#WESTON SCHOOL  N/A         71  41  34  N6      29.88R

$$

ORZ508-300510-
SOUTHERN FOOTHILLS OF THE BLUES

CITY            SKY/WX      TMP DP  RH  WIND    PRES   REMARKS
LEXINGTON       CLOUDY      70  46  42  SW8     29.95R
#AJAX           N/A         63  45  52  NW7     29.90R
#CONDON SCHOOL  N/A         61  47  60  CALM    29.94R
#CONDON 5W      N/A         58  45  62  NW8     29.95R
#FOSSIL SCHOOL  N/A         64  47  54  N1      29.94R
#HEPPNER 4NE    N/A         62  43  50  W3      29.85R
#LEXINGTON 2SE  N/A         69  47  45  W7      29.89R
#MIKKALO        N/A         67  47  49  W15     29.93R
#OLEX 4N        N/A         68  48  49  W17     29.88R
#RUGGS 5NE      N/A         63  41  44  W7      30.14S
#RUGGS 2SW      N/A         63  43  48  W3      29.91R

$$

ORZ502-503-300510-
BLUE MOUNTAINS

CITY            SKY/WX      TMP DP  RH  WIND    PRES   REMARKS
MEACHAM         CLOUDY      64  38  38  VRB3    29.99R
#BATTLE MTN DOT N/A         57  47  69  CALM    N/A
#HEPPNER 15SE   N/A         54  45  71  E1      29.92S
#LADD CYN SMT   N/A         66  38  36  NW15    N/A
#LADD CREEK ODOTN/A         69  46  44  NE2     N/A
#LONG CREEK HS  N/A         63  47  56  W3      N/A
#N POWDER DOT   N/A         66  46  48  N13     N/A
#PIKES PEAK     N/A         62  47  58  SW17    27.99S
#TOLLGATE       N/A         56  42  59  S2      29.96R
#UKIAH          N/A         63  42  46  N5      29.90R
#WESTON 4E      N/A         63  44  50  SW7     29.78R
$$

ORZ505-300510-
JOHN DAY BASIN

CITY            SKY/WX      TMP DP  RH  WIND    PRES   REMARKS
JOHN DAY        CLOUDY      68  45  44  NW3     29.97R
#DAYVILLE SCHOOLN/A         74  45  35  N1      29.89R
#MONUMENT HS    N/A         70  45  41  NE8     29.93R
#MT. VERNON 5SE N/A         66  45  47  CALM    29.94R
#WINLOCK        N/A         62  45  54  CALM    30.05R
$$

ORZ506-300510-
OCHOCO AND JOHN DAY HIGHLANDS

CITY            SKY/WX      TMP DP  RH  WIND    PRES   REMARKS
#BUCK CREEK DOT N/A         68  43  40  NW10    N/A
#HORSE RIDGE DO N/A         62  43  50  N6      N/A
#KEYES SMT DOT  N/A         60  43  53  N8      N/A
#PAULINA SCHOOL N/A         67  45  45  CALM    29.97R
#PINE MTN OBS   N/A         53  40  61  NW7     N/A
#PRAIRIE CITY   N/A         66  43  43  S1      29.84R
#SENECA 9NW     N/A         64  43  46  CALM    29.78R
$$

ORZ049-300510-
GRANDE RONDE VALLEY

CITY            SKY/WX      TMP DP  RH  WIND    PRES   REMARKS
LA GRANDE       MOCLDY      70  39  32  NW18    29.93R
#COVE           N/A         67  46  47  CALM    29.85R
#COVE SCHOOL    N/A         67  43  42  CALM    29.91R
#COVE 6NW       N/A         68  44  42  W1      29.85R
#ELGIN 3N       N/A         70  41  35  CALM    29.66R
#ELGIN 1E       N/A         71  44  38  CALM    N/A
#IMBLER SCHOOL  N/A         69  43  39  NW2     29.89R
#ISLAND CITY 4N N/A         71  45  39  CALM    29.76R
#LADD CYN DOT   N/A         69  45  42  NW10    N/A
#LA GRANDE ELEM N/A         69  45  42  NW2     29.93R
#UNION 1S       N/A         71  46  41  W6      29.71R
$$

ORZ050-300510-
WALLOWA COUNTY

CITY            SKY/WX      TMP DP  RH  WIND    PRES   REMARKS
JOSEPH AIRPORT  MOCLDY      66  41  40  E6      29.97R
#ENTERPRISE AP  N/A         67  35  30  NW13    29.89R
#ENTERPRISE HS  N/A         67  42  40  NW5     29.94R
#IMNAHA SCHOOL  N/A         79  40  25  S2      29.78R
#IMNAHA 10S     N/A         74  44  34  SW3     29.89R
#JOSEPH 3N      N/A         64  43  46  CALM    29.98R
#JOSEPH 3W      N/A         63  44  50  CALM    29.84R
#LOSTINE        N/A         68  38  33  CALM    29.62R
#MT HOWARD 8000 N/A         51  40  66  CALM    30.17R
#PROMISE 1S     N/A         67  41  39  E3      29.88S
#SHEEP RDG 7000 N/A         53  39  59  CALM    29.74R
#WALLOWA SCHOOL N/A         71  39  31  W2      30.70R



$$



USA.gov is the U.S. government's official web portal to all federal, state and local government web resources and services.